www.pogodaiklimat.ru

Погода и климат >> Архив погоды >> Австралия >> Richmond Airport


ПОГОДА в Richmond Airport

  • Прогноз погоды в Richmond Airport
  • Монитор погоды в Richmond Airport
  • Климат города

АРХИВ ПОГОДЫ в Richmond Airport

Время (UTC), дата Ветер
(напр.,м/с)
 
Видим.   Явления Облачность Т
(С)
Тd
(С)
f
(%)
Тe
(С)
Тes
(С)
Комфортность P
(гПа)
Po
(гПа)
Тmin
(С)
Tmax
(С)
R
(мм)
R24
(мм)
S
(см)
20 4.12 С 1 н/о н/о +20.8 -0.5 24 +22 +22 комфорт 1004.9 982.0
21 4.12 ЮЗ 3 н/о н/о +25.0 -2.5 16 +23 +23 комфорт 1005.4 982.5
23 4.12 В 4 н/о н/о +32.8 +2.8 15 +30 +30 жарко 1005.9 983.0
00 5.12 СВ 3 н/о н/о +35.8 +2.0 12 +32 +32 жарко 1005.7 982.8
02 5.12 СЗ 3 н/о н/о +39.5 +2.2 10 +36 +36 очень
жарко
1004.0 981.1 +18.5
03 5.12 ЮЗ 5 н/о н/о +40.5 +3.0 10 +37 +37 очень
жарко
1003.1 980.2
05 5.12 З 6 н/о 1/0
[]
+42.7 +4.6 10 +40 +46 очень
жарко
1001.0 978.2
06 5.12 З 5 н/о н/о +41.3 +3.6 10 +38 +38 очень
жарко
1000.1 977.3
08 5.12 З 4 н/о н/о +40.2 +4.1 11 +37 +37 очень
жарко
1000.5 977.7
09 5.12 З 2 н/о н/о +36.5 +9.8 20 +33 +33 жарко 1001.4 978.6
11 5.12 ЮВ 13 н/о н/о +33.0 +15.9 36 +36 +36 очень
душно
1003.6 980.7
12 5.12 ЮВ 11 н/о н/о +32.2 +16.5 39 +35 +35 очень
душно
1004.1 981.2
14 5.12 В 11 н/о н/о +29.9 +17.7 48 +34 +34 очень
душно
1004.8 981.9 +42.9
15 5.12 В 11 н/о н/о +29.3 +18.4 52 +34 +34 очень
душно
1004.4 981.5
17 5.12 В 8 н/о 1/0
[]
+26.8 +17.8 58 +31 +31 душно 1005.4 982.5
18 5.12 В 8 н/о н/о +26.8 +17.8 58 +31 +31 душно 1006.1 983.2
20 5.12 СВ 5 н/о н/о +26.9 +15.3 49 +30 +30 душно 1006.9 983.9
21 5.12 СВ 5 н/о н/о +27.9 +16.2 49 +31 +31 душно 1007.7 984.7
23 5.12 СВ 6 н/о н/о +32.1 +16.8 40 +35 +35 очень
душно
1008.4 985.4
00 6.12 СВ 5 н/о н/о +33.1 +16.0 36 +36 +36 очень
душно
1008.9 985.9
02 6.12 В 8 н/о 1/0
[]
+32.7 +16.5 38 +36 +40 очень
душно
1007.2 984.2 +26.8
03 6.12 ЮВ 9 н/о н/о +32.2 +17.7 42 +36 +36 очень
душно
1006.2 983.3
05 6.12 ЮВ 5 н/о н/о +34.1 +15.5 33 +36 +36 душно 1004.3 981.4
06 6.12 СВ 9 н/о н/о +29.3 +17.2 48 +33 +33 душно 1004.5 981.6
08 6.12 ЮВ 10 4000 м слабый ливневой дождь со снегом {туман} 8/8 600 м
[]
+22.2 +20.5 90 +29 +29 очень
душно
1007.7 984.7
09 6.12 СВ 4 н/о н/о +23.1 +21.4 90 +31 +31 очень
душно
1006.9 983.9
11 6.12 СВ 4 н/о {туман} 9/0
[]
+24.3 +20.6 80 +30 +30 очень
душно
1007.8 984.8
12 6.12 В 2 н/о н/о +24.4 +20.5 79 +30 +30 очень
душно
1008.8 985.8
14 6.12 СВ 2 н/о н/о +23.2 +20.5 85 +31 +31 очень
душно
1008.9 985.9 +34.6
15 6.12 В 4 н/о н/о +24.9 +18.8 69 +30 +30 душно 1008.3 985.3
17 6.12 В 5 н/о н/о +24.0 +18.9 73 +29 +29 душно 1007.6 984.6
18 6.12 В 4 н/о н/о +22.9 +19.1 79 +29 +29 очень
душно
1008.1 985.1
20 6.12 ЮВ 5 н/о н/о +22.4 +19.0 81 +28 +28 душно 1009.8 986.8
21 6.12 В 6 н/о н/о +24.5 +18.4 69 +29 +29 душно 1010.6 987.6
23 6.12 В 7 н/о н/о +27.3 +18.0 57 +32 +32 очень
душно
1011.3 988.2
00 7.12 В 7 н/о н/о +29.3 +17.8 50 +34 +34 очень
душно
1011.1 988.0
02 7.12 В 6 н/о н/о +32.3 +16.2 38 +35 +35 очень
душно
1009.6 986.6 +21.8
03 7.12 СВ 5 н/о н/о +33.6 +15.6 34 +36 +36 очень
душно
1008.6 985.6
05 7.12 В 4 н/о 8/0 2000 м
[]
+34.0 +15.0 32 +36 +42 душно 1006.4 983.5
06 7.12 ЮВ 7 н/о н/о +34.2 +14.1 30 +35 +35 очень
жарко
1005.4 982.5
08 7.12 В 7 н/о н/о +34.4 +13.8 29 +35 +35 очень
жарко
1005.8 982.9
09 7.12 ЮВ 6 н/о н/о +32.3 +14.0 33 +34 +34 душно 1006.5 983.6
11 7.12 В 9 н/о н/о +30.7 +14.8 38 +33 +33 душно 1008.3 985.3
12 7.12 В 8 н/о н/о +30.0 +14.5 39 +32 +32 жарко 1009.1 986.1
14 7.12 В 6 н/о н/о +28.3 +14.9 44 +31 +31 душно 1009.3 986.3 +36.2
15 7.12 В 5 н/о н/о +27.7 +15.4 47 +31 +31 душно 1009.0 986.0
17 7.12 В 6 н/о н/о +26.1 +16.9 57 +30 +30 душно 1008.7 985.7
18 7.12 В 7 н/о н/о +25.5 +16.6 58 +29 +29 душно 1008.6 985.6
21 7.12 В 8 н/о н/о +26.1 +15.5 52 +29 +29 жарко 1010.2 987.2
00 8.12 В 9 н/о н/о +31.1 +15.5 39 +34 +34 душно 1010.9 987.9
02 8.12 В 7 н/о 1/0
[]
+34.5 +13.9 29 +35 +42 очень
жарко
1009.3 986.3 +24.6
03 8.12 В 7 н/о н/о +34.8 +13.0 27 +35 +35 очень
жарко
1008.5 985.5
05 8.12 ЮВ 7 н/о 3/0
[]
+36.4 +13.2 25 +37 +40 очень
жарко
1006.8 983.8
06 8.12 В 9 н/о н/о +35.7 +11.4 23 +35 +35 очень
жарко
1006.1 983.2
08 8.12 ЮВ 8 н/о н/о +34.0 +11.2 25 +34 +34 очень
жарко
1006.4 983.5
09 8.12 В 7 н/о н/о +32.7 +11.3 27 +33 +33 жарко 1007.0 984.0
11 8.12 В 7 н/о н/о +30.7 +10.6 29 +31 +31 жарко 1008.1 985.1
12 8.12 В 7 н/о н/о +30.0 +11.5 32 +31 +31 жарко 1008.5 985.5
14 8.12 В 6 н/о н/о +28.6 +11.6 35 +29 +29 жарко 1008.4 985.4 +37.8
15 8.12 В 5 н/о н/о +27.1 +12.7 41 +29 +29 жарко 1008.1 985.1
17 8.12 В 5 н/о н/о +26.4 +14.8 49 +29 +29 жарко 1007.3 984.3
18 8.12 В 4 н/о н/о +25.9 +15.3 52 +29 +29 душно 1007.5 984.5
20 8.12 0 н/о 1008.5 985.5
21 8.12 0 н/о 1008.8 985.8
23 8.12 0 н/о 1009.0 986.0
00 9.12 0 н/о 1008.6 985.6
02 9.12 штиль 0 50 км ?/? +1 +1 1007.3 984.3
03 9.12 0 н/о 1006.5 983.6
05 9.12 0 н/о 1004.5 981.6
06 9.12 0 н/о 1003.9 981.0
08 9.12 штиль 0 50 км ?/? +1 +1 1004.6 981.7
09 9.12 0 н/о 1005.5 982.6
11 9.12 0 н/о 1007.2 984.2
12 9.12 0 н/о 1007.8 984.8
14 9.12 штиль 0 50 км ?/? +1 +1 1007.7 984.7
15 9.12 0 н/о 1007.0 984.0
17 9.12 0 н/о 1006.5 983.6
18 9.12 0 н/о 1006.4 983.5
20 9.12 0 н/о 1006.6 983.7
06 10.12 ЮВ 9 н/о н/о +39.5 +15.8 25 +41 +41 опасность
перегрева
1002.1 979.3
08 10.12 В 9 н/о 1/0
[]
+37.3 +15.7 28 +39 +39 очень
душно
1002.9 980.0
09 10.12 СВ 5 н/о н/о +34.8 +17.5 36 +38 +38 очень
душно
1004.1 981.2
11 10.12 СВ 5 н/о н/о +33.1 +18.5 42 +38 +38 очень
душно
1005.9 983.0
12 10.12 СВ 6 н/о н/о +31.7 +18.3 45 +36 +36 очень
душно
1006.6 983.7
14 10.12 СВ 5 н/о н/о +30.0 +19.1 52 +35 +35 очень
душно
1007.1 984.1
15 10.12 СВ 6 н/о н/о +29.8 +19.5 54 +36 +36 очень
душно
1006.5 983.6
17 10.12 СВ 5 н/о 9/0
[]
+28.8 +20.0 59 +35 +35 очень
душно
1006.4 983.5
18 10.12 СВ 6 н/о н/о +28.2 +20.0 61 +34 +34 очень
душно
1006.4 983.5
20 10.12 В 5 н/о н/о +27.5 +20.1 64 +34 +34 очень
душно
1007.4 984.4
21 10.12 СВ 6 н/о н/о +28.8 +20.5 61 +36 +36 очень
душно
1008.1 985.1
23 10.12 СВ 8 н/о н/о +32.7 +20.2 48 +39 +39 очень
душно
1008.4 985.4
00 11.12 СВ 7 н/о н/о +34.9 +20.1 42 +41 +41 опасность
перегрева
1008.1 985.1
02 11.12 В 5 н/о 5/0 2000 м
[]
+37.6 +18.1 32 +41 +51 опасность
перегрева
1006.4 983.5
03 11.12 ЮВ 7 н/о н/о +37.3 +17.3 31 +40 +40 очень
душно
1005.3 982.4
05 11.12 С 3 н/о в посл. час дождь со снегом 10/0 2000 м
[]
+39.1 +19.9 33 +44 +50 опасность
перегрева
1003.5 980.6
06 11.12 В 7 н/о н/о +36.6 +17.2 32 +40 +40 очень
душно
1003.3 980.4
08 11.12 В 6 н/о 10/0
[]
+36.1 +17.7 34 +40 +40 очень
душно
1003.8 980.9
09 11.12 В 4 н/о н/о +35.6 +17.3 34 +39 +39 очень
душно
1004.2 981.3
12 11.12 С 4 н/о н/о +30.6 +19.0 50 +36 +36 очень
душно
1006.8 983.8
14 11.12 СВ 2 н/о 9/0
[]
+30.4 +19.1 51 +36 +36 очень
душно
1006.5 983.6 +39.4
15 11.12 СВ 4 н/о н/о +29.6 +19.9 56 +36 +36 очень
душно
1005.7 982.8
17 11.12 СВ 4 н/о 1/0
[]
+28.8 +20.5 61 +36 +36 очень
душно
1005.3 982.4
18 11.12 СВ 4 н/о н/о +28.1 +20.4 63 +35 +35 очень
душно
1005.5 982.6

 

Местоположение метеостанции Richmond Airport (Квинсленд, Австралия): широта -20.70 долгота 143.11 высота над уровнем моря 207 м.

В архиве по умолчанию представлена погода в Richmond Airport за последнюю неделю. Архивные данные за месяц целиком и за предыдущие месяцы, начиная с января 2011 года, Вы можете получить, выбрав интересующий диапазон дат из раскрывающегося списка и нажав кнопку "Ввод!".


*Определитесь, кто Вы:
робот инопланетянин человек

Внимание! Время в таблицах - всемирное. Для получения местного времени необходимо прибавить поправку, которая в Richmond Airport равна 10 ч.

Смотрите также архив погоды в соседних городах и на ближайших метеорологических станциях:

Погода в Hughenden Airport (Квинсленд, Австралия) (117 км)
Погода в Julia Creek Airport (Квинсленд, Австралия) (144 км)
Погода в Winton Airport (Квинсленд, Австралия) (186 км)
Погода в Trepell Airport (Квинсленд, Австралия) (263 км)
Погода в Georgetown Airport (Квинсленд, Австралия) (271 км)
Погода в Cloncurry Composite (Квинсленд, Австралия) (272 км)
Погода в Longreach Airport (Квинсленд, Австралия) (327 км)
Погода в Phosphate Hill Airport (Квинсленд, Австралия) (353 км)
Погода в Lake Julius Aws (Квинсленд, Австралия) (358 км)
Погода в Mount Isa (Квинсленд, Австралия) (378 км)

Пояснения к столбцам:

Ветер - указаны скорость ветра в м/с - средняя за 10 мин, порывы в срок и между сроками (в фигурных скобках) и направление, откуда дует ветер: С - северный, СВ - северо-восточный, В - восточный, ЮВ - юго-восточный, Ю - южный, ЮЗ - юго-западный, З - западный, СЗ - северо-западный.
Видимость - горизонтальная дальность видимости в метрах или километрах. При видимости от 1 до 10 км при отсутствии осадков обычно наблюдается дымка, при ухудшении видимости до 1 км и менее - туман. В сухую погоду видимость может ухудшаться дымом, пылью или мглою.
Явления - указаны атмосферные явления, наблюдавшиеся в срок или в последний час перед сроком; фигурными скобками обозначены явления, наблюдавшиеся между сроками (за 1-3 часа до срока); квадратными скобками обозначены град или гололедные отложения с указанием их диаметра в мм.
Облачность - указаны через наклонную черту общая и нижняя облачность в баллах и высота нижней границы облаков в метрах; квадратными скобками обозначены формы облаков: Ci - перистые, Cs - перисто-слоистые, Cc - перисто-кучевые, Ac - высококучевые, As - высокослоистые, Sc - слоисто-кучевые, Ns - слоисто-дождевые, Cu - кучевые, Cb - кучево-дождевые. Подробнее классификацию облаков см. в Атласе облаков (PDF).
T - Температура воздуха - температура, измеренная на высоте 2 м над землей.
Td - Температура точки росы - температура, при понижении до которой содержащийся в воздухе водяной пар достигнет насыщения.
f - Относительная влажность воздуха - влажноcть воздуха, измеренная на высоте 2 м над землей.
Te - Эффективная температура - температура, которую ощущает одетый по сезону человек в тени. Характеристика душности погоды. При расчете учитывается влияние влажности воздуха и скорости ветра на теплоощущения человека.
Tes - Эффективная температура на солнце - температура, которую ощущает человек, с поправкой на солнечный нагрев. Характеристика знойности погоды. Зависит от высоты солнца над горизонтом, облачности и скорости ветра. Ночью, в пасмурную погоду, а также при ветре 12 м/с и более поправка равна нулю.
P - Атмосферное давление - приведенное к уровню моря атмосферное давление.
Po - Атмосферное давление - измеренное на уровне метеостанции атмосферное давление.
Tmin - Минимальная температура - минимум температуры воздуха на высоте 2 м над землей.
Tmax - Максимальная температура - максимум температуры воздуха на высоте 2 м над землей.
R - Количество осадков - Количество выпавших осадков за период времени, мм. При наведении курсора мыши на число - период времени, за который выпало указанное количество осадков.
R24 - Количество осадков - Количество выпавших осадков за 24 часа, мм.
S - Снежный покров - Высота снежного покрова, см. При наведении курсора мыши на число - состояние снежного покрова и степень покрытия местности в баллах.